EW6539 Weather Reports


time (UTC)temp
C
wind
direction
speed
KPH
gust
KPH
rain 1hr
cm
rain 24hr
cm
rain mn
cm
humidity
%
barometer
mb
20260505122535 17 254 6.4 17.7 0.00 0.00 0.00 66 1012.9
20260505122035 17 273 8.0 16.1 0.00 0.00 0.00 67 1012.8
20260505121550 17 261 4.8 12.9 0.00 0.00 0.00 69 1012.6
20260505121035 17 224 1.6 8.0 0.00 0.00 0.00 71 1012.7
20260505120539 16 230 1.6 11.3 0.00 0.00 0.00 71 1012.6
20260505120104 16 269 3.2 11.3 0.00 0.00 0.00 73 1012.7
20260505115535 16 289 1.6 9.7 0.00 0.00 0.00 74 1012.6
20260505115035 16 233 0.0 8.0 0.00 0.00 0.00 75 1012.6
20260505114544 15 238 4.8 8.0 0.00 0.00 0.00 76 1012.5
20260505114039 15 252 0.0 4.8 0.00 0.00 0.00 79 1012.6
20260505113539 15 238 0.0 4.8 0.00 0.00 0.00 79 1012.5
20260505113049 14 240 0.0 4.8 0.00 0.00 0.00 80 1012.7
20260505112536 14 236 0.0 4.8 0.00 0.00 0.00 81 1012.8
20260505112036 13 0 0.0 3.2 0.00 0.00 0.00 81 1012.6
20260505111539 13 0 0.0 1.6 0.00 0.00 0.00 81 1012.7
20260505111036 13 0 0.0 1.6 0.00 0.00 0.00 80 1012.7
20260505110535 13 0 0.0 1.6 0.00 0.00 0.00 80 1012.6
20260505110106 14 0 0.0 4.8 0.00 0.00 0.00 80 1012.5
20260505102036 13 240 1.6 11.3 0.00 0.00 0.00 82 1012.1
20260505101538 13 254 1.6 9.7 0.00 0.00 0.00 82 1011.9
20260505101037 13 0 1.6 4.8 0.00 0.00 0.00 82 1011.9
20260505100537 13 0 0.0 8.0 0.00 0.00 0.00 82 1011.9
20260505100049 13 257 1.6 8.0 0.00 0.00 0.00 82 1012.0
20260505095537 13 252 1.6 8.0 0.00 0.00 0.00 82 1011.9
20260505095037 13 232 1.6 6.4 0.00 0.00 0.00 82 1011.9
20260505094550 13 227 0.0 4.8 0.00 0.00 0.00 82 1012.0
20260505094037 13 252 1.6 9.7 0.00 0.00 0.00 82 1012.0
20260505093537 13 219 0.0 9.7 0.00 0.00 0.00 81 1011.8
20260505093049 13 195 0.0 9.7 0.00 0.00 0.00 81 1011.8
20260505092537 13 212 0.0 6.4 0.00 0.00 0.00 81 1011.8
20260505092037 13 0 0.0 6.4 0.00 0.00 0.00 80 1011.9
20260505091555 13 0 1.6 8.0 0.00 0.00 0.00 80 1011.9
20260505091040 13 144 0.0 9.7 0.00 0.00 0.00 79 1011.8
20260505090536 13 259 1.6 9.7 0.00 0.00 0.00 79 1011.9
20260505090047 13 230 3.2 9.7 0.00 0.00 0.00 79 1011.9
20260505085537 13 214 3.2 8.0 0.00 0.00 0.00 79 1011.8
20260505085037 13 0 1.6 12.9 0.00 0.00 0.00 79 1011.9
20260505084556 13 248 0.0 12.9 0.00 0.00 0.00 78 1011.9
20260505084036 14 170 3.2 14.5 0.00 0.00 0.00 78 1011.8
20260505083540 14 261 4.8 14.5 0.00 0.00 0.00 78 1011.9
20260505083056 14 243 3.2 9.7 0.00 0.00 0.00 78 1011.9
20260505082537 14 262 1.6 8.0 0.00 0.00 0.00 78 1011.9
20260505082037 14 0 1.6 12.9 0.00 0.00 0.00 78 1011.9
20260505081551 14 0 1.6 12.9 0.00 0.00 0.00 78 1011.9
20260505081037 13 126 4.8 12.9 0.00 0.00 0.00 78 1011.8
20260505080537 13 267 1.6 12.9 0.00 0.00 0.00 78 1011.9
20260505080040 13 114 1.6 14.5 0.00 0.00 0.00 78 1012.0
20260505075541 13 213 4.8 14.5 0.00 0.00 0.00 78 1011.8
20260505075037 13 261 1.6 14.5 0.00 0.00 0.00 78 1011.8
20260505074550 13 240 1.6 14.5 0.00 0.00 0.00 78 1011.8
20260505074037 13 0 3.2 14.5 0.00 0.00 0.00 78 1011.8
20260505073537 13 237 1.6 14.5 0.00 0.00 0.00 78 1011.8
20260505073057 13 228 0.0 8.0 0.00 0.00 0.00 77 1011.9
20260505072537 13 264 1.6 16.1 0.00 0.00 0.00 77 1011.8
20260505072038 13 207 0.0 16.1 0.00 0.00 0.00 76 1011.6
20260505071551 14 204 3.2 14.5 0.00 0.00 0.00 76 1011.6
20260505071037 14 271 3.2 16.1 0.00 0.00 0.00 75 1011.6
20260505070537 14 191 3.2 16.1 0.00 0.00 0.00 75 1011.4
20260505070053 14 256 1.6 11.3 0.00 0.00 0.00 75 1011.5
20260505065538 14 256 1.6 11.3 0.00 0.00 0.00 74 1011.5
20260505065036 14 247 0.0 6.4 0.00 0.00 0.00 74 1011.5
20260505064625 14 0 0.0 9.7 0.00 0.00 0.00 74 1011.6
20260505064037 15 248 3.2 12.9 0.00 0.00 0.00 73 1011.5
20260505063538 15 240 3.2 12.9 0.00 0.00 0.00 73 1011.6
20260505063047 15 271 4.8 16.1 0.00 0.00 0.00 73 1011.7
20260505062537 15 264 3.2 16.1 0.00 0.00 0.00 73 1011.8
20260505062038 15 249 4.8 16.1 0.00 0.00 0.00 73 1011.6
20260505061548 15 140 1.6 11.3 0.00 0.00 0.00 73 1011.7
20260505061041 15 250 1.6 12.9 0.00 0.00 0.00 72 1011.6
20260505060537 15 209 1.6 12.9 0.00 0.00 0.00 72 1011.8
20260505060050 15 254 0.0 12.9 0.00 0.00 0.00 72 1011.8
20260505055540 15 243 1.6 16.1 0.00 0.00 0.00 72 1011.9
20260505055037 15 229 3.2 16.1 0.00 0.00 0.00 72 1011.9
20260505054552 15 0 1.6 14.5 0.00 0.00 0.00 71 1011.9
20260505054037 15 226 3.2 14.5 0.00 0.00 0.00 71 1011.8
20260505053538 15 257 1.6 6.4 0.00 0.00 0.00 71 1011.9
20260505053048 15 246 1.6 12.9 0.00 0.00 0.00 71 1011.9
20260505052539 15 273 1.6 12.9 0.00 0.00 0.00 71 1011.9
20260505052037 15 249 0.0 9.7 0.00 0.00 0.00 70 1011.8
20260505051549 15 160 1.6 12.9 0.00 0.00 0.00 70 1011.9
20260505051037 15 159 1.6 12.9 0.00 0.00 0.00 69 1011.9
20260505050537 15 219 1.6 12.9 0.00 0.00 0.00 70 1011.9
20260505041556 15 217 0.0 12.9 0.00 0.00 0.00 68 1012.1
20260505041037 15 171 1.6 11.3 0.00 0.00 0.00 69 1012.2
20260505040541 14 176 1.6 8.0 0.00 0.00 0.00 69 1012.2
20260505040044 14 0 0.0 6.4 0.00 0.00 0.00 70 1012.3
20260505035537 14 0 0.0 6.4 0.00 0.00 0.00 70 1012.1
20260505035036 13 0 0.0 6.4 0.00 0.00 0.00 70 1012.0
20260505034604 13 0 0.0 8.0 0.00 0.00 0.00 71 1012.2
20260505034038 13 260 0.0 8.0 0.00 0.00 0.00 71 1012.2
20260505033537 13 0 0.0 3.2 0.00 0.00 0.00 71 1012.2
20260505033047 13 103 0.0 9.7 0.00 0.00 0.00 71 1012.3
20260505032537 13 144 1.6 9.7 0.00 0.00 0.00 71 1012.2
20260505032037 13 0 1.6 3.2 0.00 0.00 0.00 71 1012.2
20260505031546 13 0 0.0 8.0 0.00 0.00 0.00 72 1012.3
20260505031037 13 0 0.0 8.0 0.00 0.00 0.00 72 1012.4
20260505030541 13 0 0.0 4.8 0.00 0.00 0.00 72 1012.4
20260505030049 13 0 0.0 4.8 0.00 0.00 0.00 73 1012.4
20260505025537 13 0 0.0 4.8 0.00 0.00 0.00 73 1012.5
20260505025037 13 96 0.0 4.8 0.00 0.00 0.00 73 1012.4
20260505024541 13 141 0.0 6.4 0.00 0.00 0.00 73 1012.4
20260505024037 13 0 0.0 6.4 0.00 0.00 0.00 73 1012.5
20260505023537 13 0 0.0 6.4 0.00 0.00 0.00 73 1012.6
20260505023050 13 0 0.0 9.7 0.00 0.00 0.00 72 1012.5
20260505022537 13 0 0.0 9.7 0.00 0.00 0.00 71 1012.7
20260505022037 13 0 0.0 0.0 0.00 0.00 0.00 70 1012.6
20260505021545 13 0 0.0 3.2 0.00 0.00 0.00 69 1012.7
20260505021036 13 0 0.0 3.2 0.00 0.00 0.00 69 1012.7
20260505020537 14 0 0.0 3.2 0.00 0.00 0.00 68 1012.7
20260505015535 14 0 0.0 4.8 0.00 0.00 0.00 66 1012.6
20260505015036 14 0 1.6 4.8 0.00 0.00 0.00 65 1012.8
20260505014545 14 0 0.0 3.2 0.00 0.00 0.00 65 1012.7
20260505014036 15 0 0.0 3.2 0.00 0.00 0.00 64 1012.6
20260505013537 15 0 0.0 6.4 0.00 0.00 0.00 63 1012.6
20260505013042 15 0 1.6 6.4 0.00 0.00 0.00 62 1012.4
20260505012540 15 142 0.0 3.2 0.00 0.00 0.00 61 1012.6
20260505012038 15 153 0.0 3.2 0.00 0.00 0.00 61 1012.4
20260505011550 15 0 0.0 3.2 0.00 0.00 0.00 60 1012.4
20260505011038 15 142 0.0 3.2 0.00 0.00 0.00 60 1012.4
20260505010537 15 136 0.0 3.2 0.00 0.00 0.00 60 1012.2
20260505010107 15 146 0.0 1.6 0.00 0.00 0.00 59 1012.2
20260505005537 15 150 0.0 4.8 0.00 0.00 0.00 58 1012.2
20260505005037 16 129 0.0 4.8 0.00 0.00 0.00 57 1012.1
20260505004601 16 0 0.0 1.6 0.00 0.00 0.00 57 1012.0
20260505004040 16 0 0.0 1.6 0.00 0.00 0.00 55 1011.9
20260505003537 16 0 0.0 4.8 0.00 0.00 0.00 55 1011.9
20260505003051 17 0 0.0 4.8 0.00 0.00 0.00 53 1011.9
20260505002536 17 106 0.0 3.2 0.00 0.00 0.00 53 1011.8
20260505002040 17 136 0.0 3.2 0.00 0.00 0.00 52 1011.7
20260505001546 17 141 1.6 8.0 0.00 0.00 0.00 51 1011.7
20260505001039 17 146 0.0 8.0 0.00 0.00 0.00 50 1011.6
20260505000537 18 233 0.0 6.4 0.00 0.00 0.00 49 1011.5
20260505000045 18 150 0.0 9.7 0.00 0.00 0.00 48 1011.5
20260504235537 18 146 1.6 9.7 0.00 0.00 0.00 46 1011.4
20260504235037 19 132 1.6 4.8 0.00 0.00 0.00 43 1011.3
20260504234541 19 132 0.0 16.1 0.00 0.00 0.00 39 1011.2
20260504234036 20 228 4.8 16.1 0.00 0.00 0.00 38 1011.2
20260504233537 20 235 1.6 12.9 0.00 0.00 0.00 39 1011.1
20260504233049 20 290 4.8 12.9 0.00 0.00 0.00 37 1011.1
20260504232537 20 327 3.2 14.5 0.00 0.00 0.00 36 1011.1
20260504232037 20 261 1.6 14.5 0.00 0.00 0.00 36 1011.0
20260504231618 21 246 0.0 11.3 0.00 0.00 0.00 35 1011.0
20260504231036 21 271 1.6 19.3 0.00 0.00 0.00 34 1011.0
20260504230536 21 334 4.8 19.3 0.00 0.00 0.00 35 1010.9
20260504230047 21 226 6.4 20.9 0.00 0.00 0.00 33 1010.9
20260504225537 21 221 4.8 20.9 0.00 0.00 0.00 34 1010.9
20260504225038 21 321 3.2 22.5 0.00 0.00 0.00 34 1010.8
20260504224550 21 238 9.7 22.5 0.00 0.00 0.00 33 1010.8
20260504224039 21 257 6.4 17.7 0.00 0.00 0.00 34 1010.9
20260504223537 21 219 6.4 17.7 0.00 0.00 0.00 33 1010.9
20260504223046 21 273 4.8 20.9 0.00 0.00 0.00 33 1010.8
20260504222538 21 221 6.4 20.9 0.00 0.00 0.00 32 1010.6
20260504222039 22 261 6.4 24.1 0.00 0.00 0.00 32 1010.7
20260504221630 22 290 4.8 24.1 0.00 0.00 0.00 32 1010.8
20260504221037 22 258 4.8 22.5 0.00 0.00 0.00 32 1010.8
20260504220537 22 272 8.0 22.5 0.00 0.00 0.00 31 1010.9
20260504220051 22 265 8.0 20.9 0.00 0.00 0.00 32 1011.0
20260504215541 22 259 6.4 19.3 0.00 0.00 0.00 31 1011.0
20260504215037 22 238 8.0 25.7 0.00 0.00 0.00 31 1010.8
20260504214541 22 231 9.7 25.7 0.00 0.00 0.00 31 1010.8
20260504214055 22 261 8.0 24.1 0.00 0.00 0.00 30 1010.7
20260504213536 22 263 3.2 22.5 0.00 0.00 0.00 32 1010.8
20260504213049 22 330 4.8 22.5 0.00 0.00 0.00 31 1011.0
20260504212537 22 238 4.8 19.3 0.00 0.00 0.00 31 1010.9
20260504212039 22 198 4.8 22.5 0.00 0.00 0.00 31 1010.9
20260504211542 22 239 8.0 22.5 0.00 0.00 0.00 31 1011.1
20260504211036 22 248 11.3 19.3 0.00 0.00 0.00 31 1011.0
20260504210536 22 0 6.4 22.5 0.00 0.00 0.00 33 1010.9
20260504210047 22 229 8.0 24.1 0.00 0.00 0.00 32 1010.9
20260504205536 22 250 8.0 24.1 0.00 0.00 0.00 31 1011.1
20260504205037 22 220 11.3 22.5 0.00 0.00 0.00 31 1010.9
20260504204547 22 223 4.8 22.5 0.00 0.00 0.00 33 1011.0
20260504204040 22 234 8.0 20.9 0.00 0.00 0.00 31 1011.1
20260504203536 22 222 8.0 17.7 0.00 0.00 0.00 31 1010.9
20260504203049 22 269 6.4 17.7 0.00 0.00 0.00 30 1011.0
20260504202537 22 248 8.0 17.7 0.00 0.00 0.00 30 1011.0
20260504202036 22 229 6.4 16.1 0.00 0.00 0.00 33 1011.0
20260504201547 22 247 4.8 19.3 0.00 0.00 0.00 32 1011.0
20260504201040 22 233 6.4 19.3 0.00 0.00 0.00 33 1011.1
20260504200536 22 254 8.0 17.7 0.00 0.00 0.00 31 1011.1
20260504200045 22 275 6.4 19.3 0.00 0.00 0.00 32 1011.0
20260504195536 22 219 4.8 22.5 0.00 0.00 0.00 33 1011.1
20260504195036 22 269 8.0 22.5 0.00 0.00 0.00 32 1011.2
20260504194552 22 194 8.0 20.9 0.00 0.00 0.00 33 1011.3
20260504194038 22 302 3.2 24.1 0.00 0.00 0.00 35 1011.2
20260504193536 21 200 8.0 24.1 0.00 0.00 0.00 33 1011.3
20260504193047 22 166 8.0 24.1 0.00 0.00 0.00 32 1011.4
20260504192536 21 263 4.8 19.3 0.00 0.00 0.00 35 1011.4
20260504192037 21 248 4.8 19.3 0.00 0.00 0.00 32 1011.4
20260504191610 21 227 8.0 20.9 0.00 0.00 0.00 33 1011.6
20260504191036 21 219 8.0 22.5 0.00 0.00 0.00 33 1011.6
20260504190536 21 294 8.0 25.7 0.00 0.00 0.00 34 1011.7
20260504190049 21 324 8.0 25.7 0.00 0.00 0.00 32 1011.8
20260504185537 21 248 8.0 25.7 0.00 0.00 0.00 34 1012.0
20260504185036 21 319 9.7 24.1 0.00 0.00 0.00 32 1012.0
20260504184556 21 302 8.0 20.9 0.00 0.00 0.00 34 1012.1
20260504184037 21 154 8.0 19.3 0.00 0.00 0.00 33 1012.2
20260504183537 21 266 6.4 24.1 0.00 0.00 0.00 33 1012.2
20260504183046 21 232 6.4 24.1 0.00 0.00 0.00 34 1012.3
20260504182536 21 223 8.0 24.1 0.00 0.00 0.00 33 1012.3
20260504182036 21 262 9.7 19.3 0.00 0.00 0.00 34 1012.5
20260504181546 21 221 6.4 20.9 0.00 0.00 0.00 35 1012.4
20260504181037 21 273 3.2 22.5 0.00 0.00 0.00 35 1012.6
20260504180536 21 260 8.0 22.5 0.00 0.00 0.00 33 1012.8
20260504180051 20 261 8.0 24.1 0.00 0.00 0.00 34 1012.7
20260504175538 20 322 6.4 27.4 0.00 0.00 0.00 35 1012.8
20260504175037 20 146 9.7 27.4 0.00 0.00 0.00 33 1012.9
20260504174548 20 192 4.8 19.3 0.00 0.00 0.00 33 1012.9
20260504174037 20 225 9.7 19.3 0.00 0.00 0.00 35 1013.0
20260504173536 20 266 3.2 25.7 0.00 0.00 0.00 35 1013.0
20260504173047 20 210 6.4 25.7 0.00 0.00 0.00 34 1013.1
20260504172536 20 223 8.0 27.4 0.00 0.00 0.00 35 1013.3
20260504172039 20 265 8.0 27.4 0.00 0.00 0.00 36 1013.3
20260504171546 20 271 6.4 27.4 0.00 0.00 0.00 36 1013.3
20260504171037 20 297 6.4 17.7 0.00 0.00 0.00 35 1013.4
20260504170537 20 291 8.0 25.7 0.00 0.00 0.00 36 1013.5
20260504151035 17 288 6.4 20.9 0.00 0.00 0.00 45 1014.6
20260504150535 17 229 6.4 19.3 0.00 0.00 0.00 46 1014.6
20260504141038 16 225 8.0 25.7 0.00 0.00 0.00 48 1014.9
20260504140535 16 215 3.2 25.7 0.00 0.00 0.00 51 1014.7
20260504130537 13 236 6.4 17.7 0.00 0.00 0.00 58 1015.5